User: anonymous   Login
Location: Caltech
(34.1382°N, 118.1253°W)
Time: 07:03:42
(UTC-07:00)
Language:

CZ-2C R/B - Orbit

View from above orbital plane
View from above orbital plane
View from above satellite
View from above satellite

Ground track
Ground track

The orbit data is extracted from the following two-line orbital elements,

1 36089U 09061B   17263.96569213 +.00000075 +00000-0 +29774-4 0  9997
2 36089 098.0565 261.5344 0083289 110.3982 302.9211 14.49683235415496
Epoch (UTC): 20 September 2017 23:10:35
Eccentricity: 0.0083289
inclination: 98.0565°
perigee height: 667 km
apogee height: 786 km
right ascension of ascending node: 261.5344°
argument of perigee: 110.3982°
revolutions per day: 14.49683235
mean anomaly at epoch: 302.9211°
orbit number at epoch: 41549

The dashed part of the orbit path shows where the satellite is in the earth's shadow,  

DLR